| time (UTC) | temp F | wind direction | speed MPH | gust MPH | rain 1hr in | rain 24hr in | rain mn in | humidity % | barometer mb |
| 20260906170319 | 88 | 15 | 2.0 | 8.0 | 0.00 | 0.00 | 0.00 | ||
| 20260906165814 | 88 | 56 | 1.0 | 5.0 | 0.00 | 0.00 | 0.00 | ||
| 20260906165310 | 87 | 32 | 1.0 | 3.0 | 0.00 | 0.00 | 0.00 | ||
| 20260906164805 | 87 | 222 | 0.0 | 9.0 | 0.00 | 0.00 | 0.00 | ||
| 20260906164300 | 86 | 359 | 8.0 | 8.0 | 0.00 | 0.00 | 0.00 | ||
| 20260906163752 | 86 | 15 | 0.0 | 7.0 | 0.00 | 0.00 | 0.00 | ||
| 20260906163246 | 85 | 4 | 3.0 | 8.0 | 0.00 | 0.00 | 0.00 | ||
| 20260906162741 | 85 | 39 | 1.0 | 4.0 | 0.00 | 0.00 | 0.00 | ||
| 20260906162237 | 87 | 278 | 0.0 | 2.0 | 0.00 | 0.00 | 0.00 | ||
| 20260906161732 | 84 | 136 | 0.0 | 0.0 | 0.00 | 0.00 | 0.00 | ||
| 20260906161227 | 86 | 30 | 0.0 | 5.0 | 0.00 | 0.00 | 0.00 | ||
| 20260906160719 | 85 | 38 | 0.0 | 4.0 | 0.00 | 0.00 | 0.00 | ||
| 20260906160214 | 83 | 132 | 3.0 | 4.0 | 0.00 | 0.00 | 0.00 | ||
| 20260906155710 | 83 | 4 | 0.0 | 7.0 | 0.00 | 0.00 | 0.00 | ||
| 20260906154700 | 83 | 63 | 0.0 | 7.0 | 0.00 | 0.00 | 0.00 | ||
| 20260906154155 | 83 | 46 | 3.0 | 3.0 | 0.00 | 0.00 | 0.00 | ||
| 20260906153647 | 83 | 31 | 0.0 | 5.0 | 0.00 | 0.00 | 0.00 | ||
| 20260906153143 | 82 | 305 | 1.0 | 5.0 | 0.00 | 0.00 | 0.00 | ||
| 20260906152133 | 83 | 359 | 3.0 | 7.0 | 0.00 | 0.00 | 0.00 | ||
| 20260906151628 | 82 | 35 | 0.0 | 6.0 | 0.00 | 0.00 | 0.00 | ||
| 20260906151124 | 82 | 75 | 1.0 | 5.0 | 0.00 | 0.00 | 0.00 | ||
| 20260906150616 | 82 | 37 | 0.0 | 10.0 | 0.00 | 0.00 | 0.00 | ||
| 20260906145606 | 81 | 15 | 5.0 | 7.0 | 0.00 | 0.00 | 0.00 | ||
| 20260906145101 | 81 | 31 | 3.0 | 4.0 | 0.00 | 0.00 | 0.00 | ||
| 20260906144556 | 81 | 7 | 2.0 | 3.0 | 0.00 | 0.00 | 0.00 | ||
| 20260906144052 | 81 | 10 | 3.0 | 3.0 | 0.00 | 0.00 | 0.00 | ||
| 20260906143544 | 80 | 322 | 1.0 | 6.0 | 0.00 | 0.00 | 0.00 | ||
| 20260906143039 | 79 | 347 | 2.0 | 7.0 | 0.00 | 0.00 | 0.00 | ||
| 20260906142534 | 78 | 48 | 0.0 | 7.0 | 0.00 | 0.00 | 0.00 | ||
| 20260906142029 | 78 | 42 | 0.0 | 7.0 | 0.00 | 0.00 | 0.00 | ||
| 20260906141524 | 77 | 37 | 2.0 | 10.0 | 0.00 | 0.00 | 0.00 | ||
| 20260906141019 | 76 | 242 | 1.0 | 6.0 | 0.00 | 0.00 | 0.00 | ||
| 20260906140007 | 75 | 53 | 3.0 | 9.0 | 0.00 | 0.00 | 0.00 | ||
| 20260906135502 | 74 | 14 | 3.0 | 9.0 | 0.00 | 0.00 | 0.00 | ||
| 20260906134957 | 73 | 62 | 4.0 | 8.0 | 0.00 | 0.00 | 0.00 | ||
| 20260906134452 | 74 | 70 | 1.0 | 6.0 | 0.00 | 0.00 | 0.00 | ||
| 20260906133947 | 72 | 35 | 1.0 | 7.0 | 0.00 | 0.00 | 0.00 | ||
| 20260906133440 | 71 | 7 | 1.0 | 8.0 | 0.00 | 0.00 | 0.00 | ||
| 20260906132935 | 73 | 345 | 1.0 | 10.0 | 0.00 | 0.00 | 0.00 | ||
| 20260906132430 | 70 | 34 | 5.0 | 10.0 | 0.00 | 0.00 | 0.00 | ||
| 20260906131925 | 72 | 356 | 8.0 | 5.0 | 0.00 | 0.00 | 0.00 | ||
| 20260906131420 | 71 | 49 | 1.0 | 6.0 | 0.00 | 0.00 | 0.00 | ||
| 20260906130915 | 70 | 18 | 5.0 | 7.0 | 0.00 | 0.00 | 0.00 | ||
| 20260906130405 | 69 | 58 | 3.0 | 4.0 | 0.00 | 0.00 | 0.00 | ||
| 20260906125900 | 69 | 353 | 0.0 | 1.0 | 0.00 | 0.00 | 0.00 | ||
| 20260906125355 | 68 | 20 | 0.0 | 4.0 | 0.00 | 0.00 | 0.00 | ||
| 20260906124346 | 65 | 18 | 0.0 | 3.0 | 0.00 | 0.00 | 0.00 | ||
| 20260906123841 | 65 | 17 | 1.0 | 5.0 | 0.00 | 0.00 | 0.00 | ||
| 20260906123333 | 64 | 23 | 5.0 | 4.0 | 0.00 | 0.00 | 0.00 | ||
| 20260906122828 | 62 | 48 | 0.0 | 0.0 | 0.00 | 0.00 | 0.00 | ||
| 20260906122323 | 62 | 35 | 0.0 | 1.0 | 0.00 | 0.00 | 0.00 | ||
| 20260906121313 | 62 | 24 | 0.0 | 0.0 | 0.00 | 0.00 | 0.00 | ||
| 20260906120808 | 60 | 124 | 0.0 | 0.0 | 0.00 | 0.00 | 0.00 | ||
| 20260906115755 | 61 | 124 | 0.0 | 2.0 | 0.00 | 0.00 | 0.00 | ||
| 20260906115250 | 60 | 98 | 2.0 | 0.0 | 0.00 | 0.00 | 0.00 | ||
| 20260906114745 | 60 | 45 | 0.0 | 0.0 | 0.00 | 0.00 | 0.00 | ||
| 20260906114240 | 58 | 45 | 0.0 | 0.0 | 0.00 | 0.00 | 0.00 | ||
| 20260906113735 | 58 | 45 | 0.0 | 0.0 | 0.00 | 0.00 | 0.00 | ||
| 20260906113226 | 57 | 45 | 0.0 | 0.0 | 0.00 | 0.00 | 0.00 | ||
| 20260906112721 | 57 | 45 | 0.0 | 0.0 | 0.00 | 0.00 | 0.00 | ||
| 20260906111711 | 56 | 45 | 0.0 | 0.0 | 0.00 | 0.00 | 0.00 | ||
| 20260906110658 | 56 | 45 | 0.0 | 0.0 | 0.00 | 0.00 | 0.00 | ||
| 20260906110151 | 57 | 45 | 0.0 | 0.0 | 0.00 | 0.00 | 0.00 | ||
| 20260906105645 | 57 | 45 | 0.0 | 0.0 | 0.00 | 0.00 | 0.00 | ||
| 20260906105140 | 57 | 45 | 0.0 | 0.0 | 0.00 | 0.00 | 0.00 | ||
| 20260906104635 | 56 | 45 | 0.0 | 0.0 | 0.00 | 0.00 | 0.00 | ||
| 20260906104130 | 55 | 45 | 0.0 | 0.0 | 0.00 | 0.00 | 0.00 | ||
| 20260906103622 | 56 | 45 | 0.0 | 0.0 | 0.00 | 0.00 | 0.00 | ||
| 20260906103114 | 55 | 45 | 0.0 | 0.0 | 0.00 | 0.00 | 0.00 | ||
| 20260906102609 | 56 | 45 | 0.0 | 0.0 | 0.00 | 0.00 | 0.00 | ||
| 20260906102104 | 55 | 45 | 0.0 | 0.0 | 0.00 | 0.00 | 0.00 | ||
| 20260906101559 | 56 | 45 | 0.0 | 0.0 | 0.00 | 0.00 | 0.00 | ||
| 20260906101054 | 56 | 45 | 0.0 | 0.0 | 0.00 | 0.00 | 0.00 | ||
| 20260906100549 | 58 | 45 | 0.0 | 0.0 | 0.00 | 0.00 | 0.00 | ||
| 20260906100040 | 55 | 45 | 0.0 | 0.0 | 0.00 | 0.00 | 0.00 | ||
| 20260906095535 | 56 | 45 | 0.0 | 0.0 | 0.00 | 0.00 | 0.00 | ||
| 20260906095030 | 56 | 45 | 0.0 | 0.0 | 0.00 | 0.00 | 0.00 | ||
| 20260906094525 | 56 | 45 | 0.0 | 0.0 | 0.00 | 0.00 | 0.00 | ||
| 20260906094021 | 56 | 45 | 0.0 | 0.0 | 0.00 | 0.00 | 0.00 | ||
| 20260906093516 | 56 | 45 | 0.0 | 0.0 | 0.00 | 0.00 | 0.00 | ||
| 20260906093007 | 56 | 45 | 0.0 | 0.0 | 0.00 | 0.00 | 0.00 | ||
| 20260906092502 | 57 | 45 | 0.0 | 0.0 | 0.00 | 0.00 | 0.00 | ||
| 20260906091957 | 56 | 45 | 0.0 | 0.0 | 0.00 | 0.00 | 0.00 | ||
| 20260906091452 | 58 | 45 | 0.0 | 0.0 | 0.00 | 0.00 | 0.00 | ||
| 20260906090947 | 58 | 45 | 0.0 | 0.0 | 0.00 | 0.00 | 0.00 | ||
| 20260906090442 | 58 | 45 | 0.0 | 0.0 | 0.00 | 0.00 | 0.00 | ||
| 20260906085933 | 57 | 45 | 0.0 | 0.0 | 0.00 | 0.00 | 0.00 | ||
| 20260906085428 | 57 | 45 | 0.0 | 0.0 | 0.00 | 0.00 | 0.00 | ||
| 20260906084923 | 57 | 45 | 0.0 | 0.0 | 0.00 | 0.00 | 0.00 | ||
| 20260906084418 | 57 | 45 | 0.0 | 0.0 | 0.00 | 0.00 | 0.00 | ||
| 20260906083913 | 57 | 45 | 0.0 | 0.0 | 0.00 | 0.00 | 0.00 | ||
| 20260906083408 | 58 | 45 | 0.0 | 0.0 | 0.00 | 0.00 | 0.00 | ||
| 20260906082859 | 57 | 45 | 0.0 | 0.0 | 0.00 | 0.00 | 0.00 | ||
| 20260906082355 | 58 | 45 | 0.0 | 0.0 | 0.00 | 0.00 | 0.00 | ||
| 20260906081849 | 57 | 45 | 0.0 | 0.0 | 0.00 | 0.00 | 0.00 | ||
| 20260906081345 | 57 | 45 | 0.0 | 0.0 | 0.00 | 0.00 | 0.00 | ||
| 20260906080840 | 58 | 45 | 0.0 | 0.0 | 0.00 | 0.00 | 0.00 | ||
| 20260906080335 | 58 | 45 | 0.0 | 0.0 | 0.00 | 0.00 | 0.00 | ||
| 20260906075827 | 57 | 45 | 0.0 | 0.0 | 0.00 | 0.00 | 0.00 | ||
| 20260906075322 | 57 | 45 | 0.0 | 0.0 | 0.00 | 0.00 | 0.00 | ||
| 20260906074816 | 58 | 45 | 0.0 | 0.0 | 0.00 | 0.00 | 0.00 | ||
| 20260906074311 | 58 | 45 | 0.0 | 0.0 | 0.00 | 0.00 | 0.00 | ||
| 20260906073806 | 58 | 45 | 0.0 | 0.0 | 0.00 | 0.00 | 0.00 | ||
| 20260906073301 | 59 | 45 | 0.0 | 0.0 | 0.00 | 0.00 | 0.00 | ||
| 20260906072753 | 58 | 45 | 0.0 | 0.0 | 0.00 | 0.00 | 0.00 | ||
| 20260906071742 | 59 | 45 | 0.0 | 0.0 | 0.00 | 0.00 | 0.00 | ||
| 20260906071237 | 58 | 45 | 0.0 | 0.0 | 0.00 | 0.00 | 0.00 | ||
| 20260906070732 | 58 | 45 | 0.0 | 0.0 | 0.00 | 0.00 | 0.00 | ||
| 20260906070227 | 58 | 45 | 0.0 | 0.0 | 0.00 | 0.00 | 0.00 | ||
| 20260906065719 | 58 | 45 | 0.0 | 0.0 | 0.00 | 0.00 | 0.00 | ||
| 20260906065214 | 58 | 45 | 0.0 | 0.0 | 0.00 | 0.00 | 0.00 | ||
| 20260906064709 | 59 | 45 | 0.0 | 0.0 | 0.00 | 0.00 | 0.00 | ||
| 20260906064204 | 59 | 45 | 0.0 | 0.0 | 0.00 | 0.00 | 0.00 | ||
| 20260906063659 | 59 | 45 | 0.0 | 0.0 | 0.00 | 0.00 | 0.00 | ||
| 20260906063154 | 60 | 45 | 0.0 | 0.0 | 0.00 | 0.00 | 0.00 | ||
| 20260906062646 | 59 | 45 | 0.0 | 0.0 | 0.00 | 0.00 | 0.00 | ||
| 20260906062141 | 58 | 45 | 0.0 | 0.0 | 0.00 | 0.00 | 0.00 | ||
| 20260906060626 | 60 | 45 | 0.0 | 0.0 | 0.00 | 0.00 | 0.00 | ||
| 20260906060121 | 59 | 45 | 0.0 | 0.0 | 0.00 | 0.00 | 0.00 | ||
| 20260906055613 | 60 | 45 | 0.0 | 0.0 | 0.00 | 0.00 | 0.00 | ||
| 20260906055108 | 61 | 45 | 0.0 | 0.0 | 0.00 | 0.00 | 0.00 | ||
| 20260906054603 | 60 | 45 | 0.0 | 0.0 | 0.00 | 0.00 | 0.00 | ||
| 20260906054058 | 60 | 45 | 0.0 | 0.0 | 0.00 | 0.00 | 0.00 | ||
| 20260906053551 | 60 | 45 | 0.0 | 0.0 | 0.00 | 0.00 | 0.00 | ||
| 20260906053046 | 59 | 45 | 0.0 | 0.0 | 0.00 | 0.00 | 0.00 | ||
| 20260906052033 | 60 | 45 | 0.0 | 0.0 | 0.00 | 0.00 | 0.00 | ||
| 20260906051528 | 60 | 45 | 0.0 | 0.0 | 0.00 | 0.00 | 0.00 | ||
| 20260906051023 | 60 | 45 | 0.0 | 0.0 | 0.00 | 0.00 | 0.00 | ||
| 20260906050518 | 60 | 45 | 0.0 | 0.0 | 0.00 | 0.00 | 0.00 | ||
| 20260906050013 | 60 | 45 | 0.0 | 0.0 | 0.00 | 0.00 | 0.00 | ||
| 20260906045506 | 60 | 45 | 0.0 | 0.0 | 0.00 | 0.00 | 0.00 | ||
| 20260906045001 | 61 | 45 | 0.0 | 0.0 | 0.00 | 0.00 | 0.00 | ||
| 20260906044457 | 60 | 45 | 0.0 | 0.0 | 0.00 | 0.00 | 0.00 | ||
| 20260906043951 | 61 | 45 | 0.0 | 0.0 | 0.00 | 0.00 | 0.00 | ||
| 20260906043446 | 60 | 45 | 0.0 | 0.0 | 0.00 | 0.00 | 0.00 | ||
| 20260906042941 | 62 | 45 | 0.0 | 0.0 | 0.00 | 0.00 | 0.00 | ||
| 20260906042433 | 61 | 45 | 0.0 | 0.0 | 0.00 | 0.00 | 0.00 | ||
| 20260906041928 | 62 | 45 | 0.0 | 0.0 | 0.00 | 0.00 | 0.00 | ||
| 20260906041423 | 62 | 45 | 0.0 | 0.0 | 0.00 | 0.00 | 0.00 | ||
| 20260906040918 | 62 | 45 | 0.0 | 0.0 | 0.00 | 0.00 | 0.00 | ||
| 20260906040413 | 61 | 45 | 0.0 | 0.0 | 0.00 | 0.00 | 0.00 | ||
| 20260906035908 | 63 | 45 | 0.0 | 0.0 | 0.00 | 0.00 | 0.00 | ||
| 20260906035400 | 63 | 45 | 0.0 | 0.0 | 0.00 | 0.00 | 0.00 | ||
| 20260906034855 | 63 | 45 | 0.0 | 0.0 | 0.00 | 0.00 | 0.00 | ||
| 20260906034350 | 62 | 45 | 0.0 | 0.0 | 0.00 | 0.00 | 0.00 | ||
| 20260906033845 | 63 | 45 | 0.0 | 0.0 | 0.00 | 0.00 | 0.00 | ||
| 20260906033340 | 63 | 45 | 0.0 | 0.0 | 0.00 | 0.00 | 0.00 | ||
| 20260906032836 | 62 | 45 | 0.0 | 0.0 | 0.00 | 0.00 | 0.00 | ||
| 20260906031823 | 64 | 45 | 0.0 | 0.0 | 0.00 | 0.00 | 0.00 | ||
| 20260906031318 | 65 | 45 | 0.0 | 0.0 | 0.00 | 0.00 | 0.00 | ||
| 20260906030308 | 64 | 45 | 0.0 | 0.0 | 0.00 | 0.00 | 0.00 | ||
| 20260906024750 | 65 | 45 | 0.0 | 0.0 | 0.00 | 0.00 | 0.00 | ||
| 20260906024245 | 64 | 45 | 0.0 | 0.0 | 0.00 | 0.00 | 0.00 | ||
| 20260906023235 | 65 | 45 | 0.0 | 0.0 | 0.00 | 0.00 | 0.00 | ||
| 20260906022730 | 66 | 45 | 0.0 | 0.0 | 0.00 | 0.00 | 0.00 | ||
| 20260906022221 | 66 | 45 | 0.0 | 0.0 | 0.00 | 0.00 | 0.00 | ||
| 20260906021716 | 67 | 45 | 0.0 | 0.0 | 0.00 | 0.00 | 0.00 | ||
| 20260906021212 | 66 | 45 | 0.0 | 0.0 | 0.00 | 0.00 | 0.00 | ||
| 20260906020707 | 66 | 45 | 0.0 | 0.0 | 0.00 | 0.00 | 0.00 | ||
| 20260906020202 | 65 | 45 | 0.0 | 0.0 | 0.00 | 0.00 | 0.00 | ||
| 20260906015657 | 67 | 45 | 0.0 | 0.0 | 0.00 | 0.00 | 0.00 | ||
| 20260906015149 | 66 | 45 | 0.0 | 0.0 | 0.00 | 0.00 | 0.00 | ||
| 20260906014644 | 68 | 45 | 0.0 | 0.0 | 0.00 | 0.00 | 0.00 | ||
| 20260906014139 | 67 | 45 | 0.0 | 0.0 | 0.00 | 0.00 | 0.00 | ||
| 20260906013634 | 67 | 45 | 0.0 | 0.0 | 0.00 | 0.00 | 0.00 | ||
| 20260906013129 | 67 | 45 | 0.0 | 0.0 | 0.00 | 0.00 | 0.00 | ||
| 20260906012624 | 67 | 45 | 0.0 | 0.0 | 0.00 | 0.00 | 0.00 | ||
| 20260906012117 | 68 | 45 | 0.0 | 0.0 | 0.00 | 0.00 | 0.00 | ||
| 20260906011612 | 68 | 45 | 0.0 | 0.0 | 0.00 | 0.00 | 0.00 | ||
| 20260906011107 | 69 | 45 | 0.0 | 0.0 | 0.00 | 0.00 | 0.00 | ||
| 20260906010602 | 67 | 45 | 0.0 | 0.0 | 0.00 | 0.00 | 0.00 | ||
| 20260906010057 | 69 | 45 | 0.0 | 0.0 | 0.00 | 0.00 | 0.00 | ||
| 20260906005044 | 70 | 45 | 0.0 | 0.0 | 0.00 | 0.00 | 0.00 | ||
| 20260906004540 | 70 | 45 | 0.0 | 0.0 | 0.00 | 0.00 | 0.00 | ||
| 20260906004035 | 71 | 45 | 0.0 | 0.0 | 0.00 | 0.00 | 0.00 | ||
| 20260906003530 | 71 | 45 | 0.0 | 0.0 | 0.00 | 0.00 | 0.00 | ||
| 20260906003025 | 71 | 45 | 0.0 | 0.0 | 0.00 | 0.00 | 0.00 | ||
| 20260906002520 | 71 | 45 | 0.0 | 0.0 | 0.00 | 0.00 | 0.00 | ||
| 20260906002012 | 71 | 45 | 0.0 | 0.0 | 0.00 | 0.00 | 0.00 | ||
| 20260906001507 | 71 | 45 | 0.0 | 0.0 | 0.00 | 0.00 | 0.00 | ||
| 20260906001003 | 73 | 45 | 0.0 | 0.0 | 0.00 | 0.00 | 0.00 | ||
| 20260906000458 | 72 | 45 | 0.0 | 1.0 | 0.00 | 0.00 | 0.00 | ||
| 20260905235953 | 73 | 45 | 0.0 | 0.0 | 0.00 | 0.00 | 0.00 | ||
| 20260905235448 | 73 | 41 | 0.0 | 1.0 | 0.00 | 0.00 | 0.00 | ||
| 20260905234940 | 72 | 41 | 0.0 | 2.0 | 0.00 | 0.00 | 0.00 | ||
| 20260905234435 | 73 | 62 | 0.0 | 4.0 | 0.00 | 0.00 | 0.00 | ||
| 20260905233931 | 73 | 60 | 0.0 | 4.0 | 0.00 | 0.00 | 0.00 | ||
| 20260905233426 | 73 | 25 | 0.0 | 2.0 | 0.00 | 0.00 | 0.00 | ||
| 20260905232921 | 72 | 39 | 0.0 | 2.0 | 0.00 | 0.00 | 0.00 | ||
| 20260905232416 | 72 | 73 | 0.0 | 5.0 | 0.00 | 0.00 | 0.00 | ||
| 20260905231909 | 72 | 32 | 1.0 | 0.0 | 0.00 | 0.00 | 0.00 | ||
| 20260905231404 | 73 | 49 | 0.0 | 0.0 | 0.00 | 0.00 | 0.00 | ||
| 20260905230859 | 74 | 49 | 0.0 | 0.0 | 0.00 | 0.00 | 0.00 | ||
| 20260905230354 | 74 | 49 | 0.0 | 0.0 | 0.00 | 0.00 | 0.00 | ||
| 20260905225849 | 75 | 49 | 0.0 | 0.0 | 0.00 | 0.00 | 0.00 | ||
| 20260905225344 | 76 | 49 | 0.0 | 1.0 | 0.00 | 0.00 | 0.00 | ||
| 20260905224837 | 77 | 49 | 0.0 | 0.0 | 0.00 | 0.00 | 0.00 | ||
| 20260905224332 | 78 | 65 | 0.0 | 1.0 | 0.00 | 0.00 | 0.00 | ||
| 20260905223827 | 79 | 65 | 0.0 | 2.0 | 0.00 | 0.00 | 0.00 | ||
| 20260905223322 | 80 | 27 | 0.0 | 3.0 | 0.00 | 0.00 | 0.00 | ||
| 20260905222312 | 79 | 42 | 0.0 | 2.0 | 0.00 | 0.00 | 0.00 | ||
| 20260905221805 | 79 | 42 | 0.0 | 4.0 | 0.00 | 0.00 | 0.00 | ||
| 20260905221300 | 80 | 346 | 0.0 | 3.0 | 0.00 | 0.00 | 0.00 | ||
| 20260905220755 | 82 | 346 | 0.0 | 2.0 | 0.00 | 0.00 | 0.00 | ||
| 20260905220250 | 83 | 11 | 0.0 | 3.0 | 0.00 | 0.00 | 0.00 | ||
| 20260905215745 | 83 | 359 | 0.0 | 3.0 | 0.00 | 0.00 | 0.00 | ||
| 20260905215240 | 85 | 359 | 0.0 | 5.0 | 0.00 | 0.00 | 0.00 | ||
| 20260905214228 | 82 | 20 | 1.0 | 1.0 | 0.00 | 0.00 | 0.00 | ||
| 20260905213721 | 82 | 25 | 0.0 | 4.0 | 0.00 | 0.00 | 0.00 | ||
| 20260905213215 | 84 | 98 | 1.0 | 4.0 | 0.00 | 0.00 | 0.00 | ||
| 20260905212710 | 83 | 32 | 0.0 | 3.0 | 0.00 | 0.00 | 0.00 | ||
| 20260905211658 | 88 | 46 | 1.0 | 5.0 | 0.00 | 0.00 | 0.00 | ||
| 20260905211153 | 89 | 0 | 1.0 | 3.0 | 0.00 | 0.00 | 0.00 | ||
| 20260905210648 | 88 | 14 | 3.0 | 4.0 | 0.00 | 0.00 | 0.00 | ||
| 20260905210143 | 89 | 17 | 0.0 | 5.0 | 0.00 | 0.00 | 0.00 | ||
| 20260905205637 | 89 | 298 | 0.0 | 2.0 | 0.00 | 0.00 | 0.00 | ||
| 20260905205132 | 88 | 53 | 0.0 | 3.0 | 0.00 | 0.00 | 0.00 | ||
| 20260905204625 | 89 | 14 | 0.0 | 4.0 | 0.00 | 0.00 | 0.00 | ||
| 20260905203615 | 88 | 15 | 1.0 | 3.0 | 0.00 | 0.00 | 0.00 | ||
| 20260905203109 | 88 | 284 | 0.0 | 4.0 | 0.00 | 0.00 | 0.00 | ||
| 20260905202604 | 89 | 266 | 0.0 | 4.0 | 0.00 | 0.00 | 0.00 | ||
| 20260905202100 | 89 | 25 | 0.0 | 2.0 | 0.00 | 0.00 | 0.00 | ||
| 20260905201550 | 88 | 197 | 1.0 | 3.0 | 0.00 | 0.00 | 0.00 | ||
| 20260905201045 | 88 | 215 | 0.0 | 1.0 | 0.00 | 0.00 | 0.00 | ||
| 20260905200540 | 86 | 48 | 0.0 | 3.0 | 0.00 | 0.00 | 0.00 | ||
| 20260905195530 | 84 | 60 | 0.0 | 2.0 | 0.00 | 0.00 | 0.00 | ||
| 20260905195025 | 84 | 28 | 1.0 | 0.0 | 0.00 | 0.00 | 0.00 | ||
| 20260905194013 | 88 | 322 | 2.0 | 5.0 | 0.00 | 0.00 | 0.00 | ||
| 20260905193508 | 88 | 76 | 0.0 | 3.0 | 0.00 | 0.00 | 0.00 | ||
| 20260905193002 | 89 | 325 | 0.0 | 6.0 | 0.00 | 0.00 | 0.00 | ||
| 20260905192457 | 87 | 6 | 0.0 | 4.0 | 0.00 | 0.00 | 0.00 | ||
| 20260905191952 | 89 | 10 | 0.0 | 7.0 | 0.00 | 0.00 | 0.00 | ||
| 20260905191507 | 89 | 20 | 1.0 | 4.0 | 0.00 | 0.00 | 0.00 | ||
| 20260905191443 | 89 | 359 | 0.0 | 4.0 | 0.00 | 0.00 | 0.00 | ||
| 20260905190938 | 89 | 20 | 1.0 | 4.0 | 0.00 | 0.00 | 0.00 | ||
| 20260905190433 | 85 | 28 | 1.0 | 4.0 | 0.00 | 0.00 | 0.00 | ||
| 20260905185928 | 87 | 312 | 2.0 | 3.0 | 0.00 | 0.00 | 0.00 | ||
| 20260905185424 | 88 | 253 | 3.0 | 4.0 | 0.00 | 0.00 | 0.00 | ||
| 20260905184919 | 87 | 51 | 0.0 | 4.0 | 0.00 | 0.00 | 0.00 | ||
| 20260905184411 | 88 | 0 | 4.0 | 5.0 | 0.00 | 0.00 | 0.00 | ||
| 20260905182856 | 82 | 37 | 0.0 | 4.0 | 0.00 | 0.00 | 0.00 | ||
| 20260905182352 | 84 | 21 | 0.0 | 1.0 | 0.00 | 0.00 | 0.00 | ||
| 20260905181847 | 82 | 20 | 0.0 | 3.0 | 0.00 | 0.00 | 0.00 | ||
| 20260905181339 | 84 | 75 | 1.0 | 5.0 | 0.00 | 0.00 | 0.00 | ||
| 20260905180834 | 86 | 3 | 3.0 | 3.0 | 0.00 | 0.00 | 0.00 | ||
| 20260905175825 | 83 | 3 | 1.0 | 3.0 | 0.00 | 0.00 | 0.00 | ||
| 20260905175320 | 84 | 122 | 3.0 | 4.0 | 0.00 | 0.00 | 0.00 | ||
| 20260905174815 | 85 | 32 | 0.0 | 2.0 | 0.00 | 0.00 | 0.00 | ||
| 20260905174307 | 84 | 41 | 0.0 | 2.0 | 0.00 | 0.00 | 0.00 | ||
| 20260905173802 | 84 | 41 | 0.0 | 2.0 | 0.00 | 0.00 | 0.00 | ||
| 20260905172753 | 83 | 62 | 0.0 | 3.0 | 0.00 | 0.00 | 0.00 | ||
| 20260905172248 | 81 | 13 | 0.0 | 4.0 | 0.00 | 0.00 | 0.00 | ||
| 20260905171743 | 82 | 10 | 0.0 | 3.0 | 0.00 | 0.00 | 0.00 | ||
| 20260905171236 | 80 | 25 | 0.0 | 3.0 | 0.00 | 0.00 | 0.00 | ||
| 20260905170731 | 80 | 59 | 2.0 | 3.0 | 0.00 | 0.00 | 0.00 |